Details From CZUM - CHURCHILL FALLS
To CYKL - SCHEFFERVILLE
Flight Number -
Tags generated
Created
Modified
Stats Distance 128 nm / 236 km
Max Altitude 5,200 ft / 1,585 m
Waypoints 4
Social Downloads 1
Likes 0
Share VATSIM

Download

Looking for another format? Having issues loading an existing format? Contact us
Advertisement - Login to hide

Notes

Basic altitude profile: - Ascent Rate: 2500ft/min - Ascent Speed: 250kts - Cruise Altitude: 21000ft - Cruise Speed: 420kts - Descent Rate: 1500ft/min - Descent Speed: 250kts Options: - Use NATs: yes - Use PACOTS: yes - Use low airways: yes - Use high airways: yes

Route

CZUM UM RR23 KL CYKL

ID Type Via Altitude Latitude Longitude Leg Dist Tot Dist Heading (true) Name
O CZUM APT - 0 ft / 0 m 53.56262˚ -64.10594˚ - 0 nm - CHURCHILL FALLS
UM NDB - 1,700 ft / 518 m 53.59056˚ -64.23556˚ 4 nm 4 nm 290° / 290° CHURCHILL FALLS NDB
KL NDB RR23 (AWY-LO) 5,200 ft / 1,585 m 54.84944˚ -66.86222˚ 119 nm 124 nm 310° / 308° -
O CYKL APT - 0 ft / 0 m 54.80472˚ -66.80472˚ 3 nm 127 nm 143° / 143° SCHEFFERVILLE

Altitude Profile

Advertisement - Login to hide

CZUM

Details ICAO CZUM (ZUM)
Name CHURCHILL FALLS
Region Canada
Timezone America/Goose_Bay (UTC-3.0)
Stats Elevation 1,442 ft / 440 m (AMSL)
Location 53.562625° -64.105935°
Runways 1
Magnetic Variation 20.694° W

METAR

CZUM 250500Z AUTO 11007KT 9SM FEW060 M03/M09 A2968 RMK SLP076

Decode

TAF

TAF CZUM 250141Z 2502/2514 07007KT P6SM SKC FM250900 09008KT P6SM SCT020 TEMPO 2509/2514 BKN020 RMK FCST BASED ON AUTO OBS. NXT FCST BY 250800Z

Decode

Departure Runways

ID Width Length Bearing (true) Bearing (mag) Surface Threshold Offset Overrun Length
13 150 ft / 46 m 5,484 ft / 1,671 m 104.57° 125.26° Asphalt 0 ft / 0 m 0 ft / 0 m
31 150 ft / 46 m 5,484 ft / 1,671 m 284.59° 305.28° Asphalt 0 ft / 0 m 0 ft / 0 m

CYKL

Details ICAO CYKL (YKL)
Name SCHEFFERVILLE
Region Canada
Timezone America/Montreal (UTC-4.0)
Stats Elevation 1,709 ft / 521 m (AMSL)
Location 54.804722° -66.804722°
Runways 1
Magnetic Variation 20.867° W

METAR

CYKL 250500Z AUTO 15004KT 9SM FEW160 M04/M08 A2962 RMK SLP061

Decode

TAF

TAF CYKL 250141Z 2502/2514 17005KT P6SM BKN180 FM250700 14007KT P6SM BKN060 TEMPO 2507/2514 BKN015 BECMG 2512/2514 10008KT RMK FCST BASED ON AUTO OBS. NXT FCST BY 250800Z

Decode

Destination Runways

ID Width Length Bearing (true) Bearing (mag) Surface Threshold Offset Overrun Length
18 150 ft / 46 m 4,992 ft / 1,522 m 149.05° 169.92° Asphalt 0 ft / 0 m 250 ft / 76 m
36 150 ft / 46 m 4,992 ft / 1,522 m 329.06° 349.93° Asphalt 0 ft / 0 m 250 ft / 76 m